Location: Oso Ridge
(35.0450°N, 108.0864°W)
Time: 03:54:44
(UTC-07:00)

Amateur Radio Satellites - All Passes

Search period start: 17 January 2017 03:24
Search period end: 18 January 2017 03:24
Location: Oso Ridge, 35.0450°N, 108.0864°W

Satellite Date Start Highest point End Downlink Frequencies (MHz)
Time Altitude Azimuth
MOZHAYETS 4 17 Jan 03:49:08 03:53:06 29° 263° (W) 03:57:06
PHONESAT 2.4 17 Jan 03:55:32 03:57:48 50° 341° (NNW) 04:00:04 2401.200-2431.200
M-CUBED/EXP-1 PRIME 17 Jan 04:00:40 04:04:32 27° 258° (WSW) 04:08:15 437.505
CUSAT 1 17 Jan 04:04:42 04:09:03 60° 282° (WNW) 04:14:51 437.405
DANDE 17 Jan 04:18:06 04:21:05 34° 90° (E) 04:24:53 436.750
AIST 2 17 Jan 04:20:17 04:21:23 11° 46° (NE) 04:22:29 435.215
CUBESAT XI-V 17 Jan 04:23:30 04:28:11 87° 75° (ENE) 04:32:55 437.345
STARS 17 Jan 04:23:51 04:28:15 86° 260° (W) 04:32:39 437.465
Cosmos 2504 17 Jan 04:25:11 04:29:38 17° 279° (W) 04:34:00 435.465 / 435.565
AUBIESAT-1 17 Jan 04:43:19 04:44:48 11° 262° (W) 04:46:15 437.475
ITAMSAT 1 17 Jan 04:56:30 04:59:03 14° 297° (WNW) 05:01:36 435.822/435.867
KKS-1 17 Jan 04:58:13 05:00:54 16° 266° (W) 05:03:35 437.445
AO-7 17 Jan 05:02:11 05:09:51 42° 296° (WNW) 05:17:28 29.400- 29.500
RS-15 17 Jan 05:10:05 05:15:42 14° 0° (N) 05:21:19 29.354- 29.394
BRITE-PL 17 Jan 05:23:55 05:28:53 74° 284° (WNW) 05:33:25 437.365/2234.400
PHONESAT 2.4 17 Jan 05:30:27 05:32:17 20° 357° (N) 05:34:07 2401.200-2431.200
GONETS M04 17 Jan 05:32:21 05:33:12 10° 61° (ENE) 05:34:03
LilacSat-2 17 Jan 05:34:58 05:37:47 19° 95° (E) 05:40:37 437.200
ISS 17 Jan 05:36:53 05:39:20 19° 32° (NNE) 05:41:47 145.825
CUTE-I 17 Jan 05:37:53 05:42:02 23° 95° (E) 05:46:11 437.470
GOMX 1 17 Jan 05:47:27 05:51:56 74° 101° (E) 05:56:09 467.674
NOAA 18 17 Jan 05:54:02 05:57:27 17° 94° (E) 06:00:51 137.9125
AIST 2 17 Jan 05:56:07 06:00:22 76° 242° (WSW) 06:04:33 435.215
HORYU 2 17 Jan 06:00:24 06:04:47 64° 286° (WNW) 06:09:12 437.375
STRAND 1 17 Jan 06:14:48 06:19:27 38° 71° (ENE) 06:24:07 437.568
Cubesat XI-IV 17 Jan 06:18:58 06:24:13 58° 101° (E) 06:29:28 437.490
O/OREOS (USA 219) 17 Jan 06:27:06 06:31:12 36° 104° (ESE) 06:35:17 437.305
NOAA 15 17 Jan 06:41:31 06:46:52 80° 284° (WNW) 06:52:09 137.62
HO-68 17 Jan 06:45:14 06:50:28 21° 94° (E) 06:55:39 435.675
DOVE 4 17 Jan 06:45:45 06:49:54 63° 285° (WNW) 06:53:59 437.250
CANX-2 17 Jan 06:45:46 06:48:16 15° 93° (E) 06:50:45 2200.000
Cosmos 2499 17 Jan 06:53:28 07:00:21 48° 79° (ENE) 07:07:06 435.465 / 435.565
CINEMA 3 17 Jan 07:04:20 07:08:16 39° 99° (E) 07:12:15 145.822/145.860
PHONESAT 2.4 17 Jan 07:04:45 07:06:51 29° 13° (NNE) 07:08:58 2401.200-2431.200
SEEDS 17 Jan 07:05:03 07:07:14 14° 93° (E) 07:09:24 437.485
LilacSat-2 17 Jan 07:08:53 07:11:59 23° 289° (WNW) 07:15:05 437.200
ISS 17 Jan 07:12:52 07:15:54 38° 227° (SW) 07:18:57 145.825
CUTE-I 17 Jan 07:17:14 07:22:07 38° 290° (WNW) 07:27:00 437.470
COMPASS 1 17 Jan 07:18:06 07:19:48 12° 92° (E) 07:21:29 437.405
GONETS M04 17 Jan 07:22:58 07:31:46 67° 81° (E) 07:40:32
RS-15 17 Jan 07:24:51 07:34:48 27° 36° (NE) 07:44:28 29.354- 29.394
AAUSAT CUBESAT 2 17 Jan 07:32:48 07:34:59 14° 93° (E) 07:37:08 437.432
NOAA 18 17 Jan 07:33:05 07:38:22 53° 288° (WNW) 07:43:38 137.9125
CUTE 1.7 + AOD 2 17 Jan 07:51:31 07:55:50 82° 103° (ESE) 08:00:07 437.475
ZACube-1 17 Jan 07:53:36 07:54:43 11° 92° (E) 07:55:50 437.345
STRAND 1 17 Jan 07:54:54 07:58:41 21° 265° (W) 08:02:30 437.568
Cubesat XI-IV 17 Jan 08:00:38 08:03:45 16° 296° (WNW) 08:06:53 437.490
PRISM 17 Jan 08:05:49 08:09:14 25° 70° (ENE) 08:12:39 437.425
O/OREOS (USA 219) 17 Jan 08:07:37 08:10:41 18° 299° (WNW) 08:13:46 437.305
CANX-2 17 Jan 08:20:15 08:24:13 37° 287° (WNW) 08:28:11 2200.000
CUBEBUG 2 17 Jan 08:23:38 08:27:57 76° 102° (ESE) 08:32:23 437.445
HO-68 17 Jan 08:31:30 08:38:33 61° 289° (WNW) 08:45:33 435.675
Oscar 11 17 Jan 08:34:37 08:38:24 28° 97° (E) 08:42:09 145.826/435.025
PHONESAT 2.4 17 Jan 08:38:53 08:41:05 37° 208° (SSW) 08:43:16 2401.200-2431.200
SEEDS 17 Jan 08:39:05 08:43:03 40° 287° (WNW) 08:47:01 437.485
CINEMA 3 17 Jan 08:42:51 08:45:05 14° 292° (WNW) 08:47:18 145.822/145.860
SO-50 17 Jan 08:46:42 08:51:27 75° 301° (WNW) 08:56:08 436.795
Cosmos 2499 17 Jan 08:47:34 08:52:57 24° 276° (W) 08:58:18 435.465 / 435.565
COMPASS 1 17 Jan 08:51:31 08:55:31 44° 286° (WNW) 08:59:30 437.405
UNISAT 6 17 Jan 08:58:22 09:01:59 27° 71° (ENE) 09:05:35 437.425
UWE-3 17 Jan 08:59:52 09:04:10 66° 285° (WNW) 09:08:35 435.000/436.395/437.385
FUNcube-1 17 Jan 09:05:55 09:10:17 77° 102° (ESE) 09:14:44 145.935
AAUSAT CUBESAT 2 17 Jan 09:06:41 09:10:34 38° 287° (WNW) 09:14:26 437.432
TIGRISAT 17 Jan 09:12:31 09:16:27 37° 73° (ENE) 09:20:21 435.000
DELFI C3 17 Jan 09:20:47 09:24:19 30° 97° (E) 09:27:49 145.870
GONETS M04 17 Jan 09:21:23 09:27:42 23° 278° (W) 09:34:03
ANTELSAT 17 Jan 09:26:29 09:30:42 59° 75° (ENE) 09:34:53 437.575/2403.000
ZACube-1 17 Jan 09:26:57 09:31:13 54° 285° (WNW) 09:35:34 437.345
JAS-2 17 Jan 09:34:51 09:38:55 23° 65° (ENE) 09:43:12 435.910
RS-15 17 Jan 09:36:57 09:49:21 85° 61° (ENE) 10:01:12 29.354- 29.394
PRISM 17 Jan 09:41:12 09:44:25 22° 264° (W) 09:47:40 437.425
POPSAT HIP 1 17 Jan 10:03:02 10:04:47 12° 66° (ENE) 10:06:31 437.405
HUMSAT D 17 Jan 10:09:45 10:14:00 65° 100° (E) 10:18:15 437.325/437.525
Oscar 11 17 Jan 10:11:03 10:14:19 21° 291° (WNW) 10:17:35 145.826/435.025
DUCHIFAT 1 17 Jan 10:17:32 10:20:03 16° 68° (ENE) 10:22:35 145.980
NANOSAT C BR1 17 Jan 10:20:40 10:23:38 19° 69° (ENE) 10:26:36 145.865
UNISAT 6 17 Jan 10:35:29 10:38:39 20° 265° (W) 10:41:50 437.425
PCSat 17 Jan 10:39:32 10:44:50 52° 60° (ENE) 10:50:06 145.827
TIGRISAT 17 Jan 10:50:49 10:53:14 15° 266° (W) 10:55:39 435.000
DELFI C3 17 Jan 10:56:18 10:58:51 17° 291° (WNW) 11:01:25 145.870
BY70-1 17 Jan 11:04:58 11:08:22 77° 102° (ESE) 11:11:34 436.1900
BUGSAT 1 17 Jan 11:06:10 11:09:08 20° 69° (ENE) 11:12:04 437.445
QB50P1 17 Jan 11:09:18 11:13:30 82° 77° (ENE) 11:17:43 145.935-145.965
POLYITAN 1 17 Jan 11:12:19 11:16:31 90° 347° (NNW) 11:20:43 437.675
QB50P2 17 Jan 11:13:25 11:17:38 81° 258° (WSW) 11:21:51 145.880/145.840
JAS-2 17 Jan 11:19:01 11:23:46 35° 263° (W) 11:28:48 435.910
CUBEBUG 1 17 Jan 11:26:42 11:30:32 30° 97° (E) 11:34:20 437.445
SPROUT 17 Jan 11:27:53 11:29:50 13° 93° (E) 11:31:47 437.525
AISAT 17 Jan 11:34:01 11:37:33 23° 96° (E) 11:41:02 437.250
POPSAT HIP 1 17 Jan 11:36:04 11:40:06 46° 260° (W) 11:44:10 437.405
ESTCUBE 1 17 Jan 11:40:24 11:44:57 83° 102° (ESE) 11:49:28 437.505/2401.250
DUCHIFAT 1 17 Jan 11:51:36 11:55:26 35° 262° (W) 11:59:16 145.980
RS-15 17 Jan 11:51:48 12:00:13 22° 260° (W) 12:08:26 29.354- 29.394
NANOSAT C BR1 17 Jan 11:55:30 11:59:08 29° 263° (W) 12:02:47 145.865
Gurwin Techsat 1B 17 Jan 12:04:18 12:06:55 14° 63° (ENE) 12:09:33 435.225
VELOX 1 17 Jan 12:06:59 12:11:18 55° 100° (E) 12:15:36 145.980
Oscar 19 17 Jan 12:15:40 12:20:18 34° 70° (ENE) 12:24:59 437.125/150
PCSat 17 Jan 12:24:15 12:27:44 18° 255° (WSW) 12:31:13 145.827
50 SAT 17 Jan 12:39:48 12:43:20 64° 284° (WNW) 12:46:49 437.505
BUGSAT 1 17 Jan 12:40:51 12:44:18 26° 263° (W) 12:47:45 437.445
DX 1 17 Jan 12:50:37 12:54:59 83° 105° (ESE) 12:59:18 434.975-435.025
UKube-1 17 Jan 12:56:42 13:01:00 69° 102° (ESE) 13:05:16 .
CUSAT 1 17 Jan 13:00:42 13:04:42 14° 64° (ENE) 13:08:36 437.405
SPROUT 17 Jan 13:01:54 13:05:54 42° 287° (WNW) 13:09:55 437.525
CUBEBUG 1 17 Jan 13:03:30 13:06:34 19° 292° (WNW) 13:09:37 437.445
TISAT 1 17 Jan 13:06:51 13:10:15 24° 96° (E) 13:13:39 437.305
AISAT 17 Jan 13:10:18 13:13:54 25° 290° (WNW) 13:17:29 437.250
AIST 1 17 Jan 13:28:19 13:31:22 19° 88° (E) 13:34:25
Cosmos 2491 17 Jan 13:33:40 13:42:25 66° 81° (E) 13:51:08 435.465 / 435.565
YUBILEINY 17 Jan 13:38:01 13:45:30 33° 85° (E) 13:53:00 435.215
Gurwin Techsat 1B 17 Jan 13:40:59 13:46:15 66° 258° (WSW) 13:51:32 435.225
VELOX 1 17 Jan 13:45:41 13:47:14 12° 295° (WNW) 13:48:47 145.980
BEESAT 17 Jan 13:46:13 13:48:16 13° 92° (E) 13:50:20 436.000
SWISSCUBE 17 Jan 13:46:54 13:49:37 15° 93° (E) 13:52:19 437.505
Oscar 19 17 Jan 13:55:29 13:59:37 24° 264° (W) 14:03:48 437.125/150
AO-7 17 Jan 14:04:51 14:12:30 42° 64° (ENE) 14:20:11 29.400- 29.500
JUGNU 17 Jan 14:23:26 14:24:48 11° 165° (SSE) 14:26:10 437.505
ITAMSAT 1 17 Jan 14:29:41 14:34:48 72° 75° (ENE) 14:39:58 435.822/435.867
AO-85 17 Jan 14:29:47 14:34:38 84° 120° (ESE) 14:39:09 145.980
CUSAT 1 17 Jan 14:39:47 14:47:49 78° 81° (E) 14:55:16 437.405
TISAT 1 17 Jan 14:42:30 14:45:45 22° 290° (WNW) 14:49:00 437.305
ITUPSAT 1 17 Jan 14:44:40 14:49:24 57° 101° (E) 14:54:07 437.325
DANDE 17 Jan 14:55:40 15:02:51 41° 76° (ENE) 15:10:36 436.750
BRITE-PL 17 Jan 14:56:13 14:57:40 11° 62° (ENE) 14:59:07 437.365/2234.400
Cosmos 2504 17 Jan 15:02:11 15:10:51 64° 92° (E) 15:19:07 435.465 / 435.565
AIST 1 17 Jan 15:04:54 15:08:42 29° 282° (WNW) 15:12:31
BEESAT 17 Jan 15:21:39 15:26:20 55° 286° (WNW) 15:30:59 436.000
SWISSCUBE 17 Jan 15:22:59 15:27:36 47° 287° (WNW) 15:32:11 437.505
Cosmos 2491 17 Jan 15:32:04 15:38:24 23° 278° (W) 15:44:47 435.465 / 435.565
YUBILEINY 17 Jan 15:33:30 15:41:53 48° 282° (WNW) 15:50:21 435.215
M-CUBED/EXP-1 PRIME 17 Jan 15:43:04 15:45:38 20° 101° (E) 15:48:07 437.505
MOZHAYETS 4 17 Jan 15:46:29 15:51:08 81° 100° (E) 15:55:47
AO-7 17 Jan 15:57:30 16:05:09 40° 260° (W) 16:12:53 29.400- 29.500
BEESAT 3 17 Jan 16:06:30 16:09:20 20° 111° (ESE) 16:12:13 437.485
JUGNU 17 Jan 16:09:19 16:13:02 17° 175° (S) 16:16:47 437.505
ITAMSAT 1 17 Jan 16:13:28 16:14:43 11° 269° (W) 16:15:57 435.822/435.867
AO-85 17 Jan 16:14:12 16:15:30 11° 313° (NW) 16:16:48 145.980
STARS 17 Jan 16:17:07 16:20:27 21° 96° (E) 16:23:47 437.465
NOAA 15 17 Jan 16:21:57 16:24:23 13° 63° (ENE) 16:26:49 137.62
AUBIESAT-1 17 Jan 16:21:59 16:25:19 60° 106° (ESE) 16:28:33 437.475
CUSAT 1 17 Jan 16:23:36 16:28:46 19° 278° (W) 16:33:46 437.405
CUBESAT XI-V 17 Jan 16:23:47 16:27:49 28° 96° (E) 16:31:47 437.345
ITUPSAT 1 17 Jan 16:24:21 16:26:42 14° 295° (WNW) 16:29:02 437.325
BRITE-PL 17 Jan 16:29:35 16:35:14 87° 77° (ENE) 16:40:57 437.365/2234.400
DANDE 17 Jan 16:38:20 16:45:29 41° 269° (W) 16:53:07 436.750
O/OREOS (USA 219) 17 Jan 16:39:59 16:44:14 40° 66° (ENE) 16:48:30 437.305
BEESAT 2 17 Jan 16:43:50 16:46:53 22° 111° (ESE) 16:49:58 435.950
KKS-1 17 Jan 16:50:14 16:54:37 64° 285° (WNW) 16:58:58 437.445
GOMX 1 17 Jan 16:50:47 16:56:08 58° 75° (ENE) 17:01:21 467.674
HORYU 2 17 Jan 16:54:47 16:59:10 77° 77° (ENE) 17:03:35 437.375
CUTE-I 17 Jan 16:56:33 17:00:59 28° 68° (ENE) 17:05:25 437.470
Cosmos 2504 17 Jan 16:57:55 17:04:40 24° 288° (WNW) 17:11:13 435.465 / 435.565
HO-68 17 Jan 17:14:04 17:16:23 12° 55° (NE) 17:18:43 435.675
NOAA 18 17 Jan 17:16:47 17:21:10 25° 67° (ENE) 17:25:34 137.9125
M-CUBED/EXP-1 PRIME 17 Jan 17:17:52 17:19:58 16° 296° (WNW) 17:22:02 437.505
SO-50 17 Jan 17:21:24 17:25:36 38° 55° (NE) 17:29:45 436.795
SRMSAT 17 Jan 17:33:15 17:36:12 14° 169° (SSE) 17:39:10 437.500
Cubesat XI-IV 17 Jan 17:37:39 17:42:56 70° 74° (ENE) 17:48:13 437.490
BEESAT 3 17 Jan 17:43:25 17:46:45 27° 306° (NW) 17:50:08 437.485
LilacSat-2 17 Jan 17:46:37 17:50:21 78° 259° (W) 17:54:08 437.200
DOVE 4 17 Jan 17:46:39 17:51:49 85° 76° (ENE) 17:56:43 437.250
STARS 17 Jan 17:53:02 17:56:45 28° 290° (WNW) 18:00:27 437.465
JUGNU 17 Jan 17:57:35 18:01:20 17° 185° (S) 18:05:06 437.505
NOAA 15 17 Jan 17:58:15 18:03:30 69° 258° (WSW) 18:08:48 137.62
CUBESAT XI-V 17 Jan 18:01:15 18:05:02 25° 291° (WNW) 18:08:47 437.345
CINEMA 3 17 Jan 18:03:01 18:06:44 26° 71° (ENE) 18:10:21 145.822/145.860
BRITE-PL 17 Jan 18:13:16 18:14:14 10° 271° (W) 18:15:13 437.365/2234.400
O/OREOS (USA 219) 17 Jan 18:20:41 18:23:14 15° 261° (W) 18:25:47 437.305
BEESAT 2 17 Jan 18:21:13 18:24:31 25° 307° (NW) 18:27:51 435.950
GONETS M04 17 Jan 18:29:14 18:32:45 13° 77° (ENE) 18:36:16
STRAND 1 17 Jan 18:29:30 18:32:45 17° 94° (E) 18:35:59 437.568
GOMX 1 17 Jan 18:31:17 18:34:25 15° 268° (W) 18:37:32 467.674
CUTE-I 17 Jan 18:36:13 18:40:52 31° 263° (W) 18:45:34 437.470
CUTE 1.7 + AOD 2 17 Jan 18:40:52 18:44:44 36° 73° (ENE) 18:48:38 437.475
HO-68 17 Jan 18:55:42 19:02:51 73° 72° (ENE) 19:10:02 435.675
NOAA 18 17 Jan 18:56:30 19:01:35 38° 261° (W) 19:06:41 137.9125
SO-50 17 Jan 19:02:40 19:05:44 18° 250° (WSW) 19:08:46 436.795
CANX-2 17 Jan 19:08:59 19:13:13 84° 255° (WSW) 19:17:30 2200.000
CUBEBUG 2 17 Jan 19:18:43 19:22:38 39° 73° (ENE) 19:26:30 437.445
SRMSAT 17 Jan 19:20:40 19:24:39 18° 179° (S) 19:28:37 437.500
Cubesat XI-IV 17 Jan 19:21:33 19:23:25 12° 269° (W) 19:25:17 437.490
Cosmos 2499 17 Jan 19:24:49 19:32:55 47° 90° (E) 19:40:31 435.465 / 435.565
SEEDS 17 Jan 19:26:44 19:30:56 87° 84° (E) 19:35:12 437.485
Oscar 11 17 Jan 19:27:19 19:29:48 15° 67° (ENE) 19:32:18 145.826/435.025
COMPASS 1 17 Jan 19:38:14 19:42:23 76° 78° (ENE) 19:46:36 437.405
CINEMA 3 17 Jan 19:40:08 19:43:46 24° 264° (W) 19:47:20 145.822/145.860
JUGNU 17 Jan 19:48:05 19:49:36 11° 195° (SSW) 19:51:06 437.505
AIST 2 17 Jan 19:50:17 19:54:12 48° 115° (ESE) 19:58:13 435.215
AAUSAT CUBESAT 2 17 Jan 19:52:46 19:56:55 86° 76° (ENE) 20:01:07 437.432
UWE-3 17 Jan 19:53:31 19:57:37 63° 76° (ENE) 20:01:43 435.000/436.395/437.385
FUNcube-1 17 Jan 19:58:25 20:02:11 36° 73° (ENE) 20:05:59 145.935
DELFI C3 17 Jan 20:05:02 20:06:33 12° 67° (ENE) 20:08:03 145.870
STRAND 1 17 Jan 20:07:11 20:12:07 48° 288° (WNW) 20:17:02 437.568
CUTE 1.7 + AOD 2 17 Jan 20:18:11 20:20:39 15° 267° (W) 20:23:09 437.475
ZACube-1 17 Jan 20:19:17 20:23:25 75° 76° (ENE) 20:27:32 437.345
GONETS M04 17 Jan 20:19:25 20:28:07 84° 95° (E) 20:36:53
HO-68 17 Jan 20:46:35 20:51:05 18° 267° (W) 20:55:38 435.675
CUBEBUG 2 17 Jan 20:57:19 20:59:23 13° 267° (W) 21:01:26 437.445
HUMSAT D 17 Jan 20:58:02 21:01:30 27° 71° (ENE) 21:05:01 437.325/437.525
Oscar 11 17 Jan 21:01:32 21:05:33 39° 261° (W) 21:09:38 145.826/435.025
SRMSAT 17 Jan 21:09:43 21:13:06 15° 189° (S) 21:16:28 437.500
Cosmos 2499 17 Jan 21:18:41 21:26:06 32° 285° (WNW) 21:33:09 435.465 / 435.565
ANTELSAT 17 Jan 21:22:09 21:24:56 16° 94° (E) 21:27:44 437.575/2403.000
PRISM 17 Jan 21:24:40 21:28:46 63° 102° (ESE) 21:32:47 437.425
AIST 2 17 Jan 21:30:35 21:32:57 15° 311° (NW) 21:35:20 435.215
FUNcube-1 17 Jan 21:36:21 21:38:32 14° 267° (W) 21:40:44 145.935
DELFI C3 17 Jan 21:37:05 21:40:54 44° 261° (W) 21:44:45 145.870
RS-15 17 Jan 21:50:04 21:55:44 15° 96° (E) 22:01:29 29.354- 29.394
ISS 17 Jan 22:14:15 22:17:05 28° 131° (SE) 22:19:55 145.825
CUBEBUG 1 17 Jan 22:20:05 22:23:06 18° 68° (ENE) 22:26:07 437.445
GONETS M04 17 Jan 22:20:39 22:25:58 17° 294° (WNW) 22:31:20
UNISAT 6 17 Jan 22:28:34 22:33:00 82° 283° (WNW) 22:37:31 437.425
AISAT 17 Jan 22:29:05 22:31:39 15° 66° (ENE) 22:34:11 437.250
JAS-2 17 Jan 22:29:09 22:35:46 37° 97° (E) 22:42:48 435.910
HUMSAT D 17 Jan 22:34:15 22:37:05 18° 266° (W) 22:39:58 437.325/437.525
ESTCUBE 1 17 Jan 22:36:24 22:40:46 49° 73° (ENE) 22:45:09 437.505/2401.250
TIGRISAT 17 Jan 22:42:56 22:47:17 60° 285° (WNW) 22:51:43 435.000
BY70-1 17 Jan 22:47:11 22:49:49 37° 261° (W) 22:52:43 436.1900
ANTELSAT 17 Jan 22:57:37 23:01:43 38° 287° (WNW) 23:05:53 437.575/2403.000
QB50P1 17 Jan 22:58:16 23:00:59 17° 94° (E) 23:03:42 145.935-145.965
VELOX 1 17 Jan 23:01:02 23:04:59 32° 72° (ENE) 23:08:57 145.980
POLYITAN 1 17 Jan 23:01:15 23:04:12 18° 95° (E) 23:07:09 437.675
QB50P2 17 Jan 23:02:13 23:05:23 20° 95° (E) 23:08:30 145.880/145.840
AO-85 17 Jan 23:05:00 23:08:12 24° 53° (NE) 23:11:24 145.980
50 SAT 17 Jan 23:11:26 23:14:27 27° 72° (ENE) 23:17:31 437.505
POPSAT HIP 1 17 Jan 23:23:57 23:27:46 33° 98° (E) 23:31:35 437.405
DUCHIFAT 1 17 Jan 23:38:23 23:42:22 42° 99° (E) 23:46:21 145.980
NANOSAT C BR1 17 Jan 23:42:15 23:46:22 53° 100° (E) 23:50:29 145.865
DX 1 17 Jan 23:42:41 23:46:51 45° 73° (ENE) 23:51:02 434.975-435.025
UKube-1 17 Jan 23:47:53 23:51:52 37° 72° (ENE) 23:55:51 .
ISS 17 Jan 23:50:51 23:53:33 24° 326° (NNW) 23:56:15 145.825
SPROUT 17 Jan 23:51:25 23:55:40 90° 293° (WNW) 23:59:56 437.525
RS-15 17 Jan 23:54:19 00:06:00 77° 115° (ESE) 00:18:16 29.354- 29.394
YUBILEINY 17 Jan 23:54:39 23:57:45 12° 63° (ENE) 00:00:50 435.215
CUBEBUG 1 17 Jan 23:55:05 23:59:05 34° 262° (W) 00:03:07 437.445
TISAT 1 17 Jan 23:56:51 23:58:38 13° 66° (ENE) 00:00:26 437.305
AISAT 18 Jan 00:03:28 00:07:42 43° 260° (W) 00:11:56 437.250
JAS-2 18 Jan 00:14:06 00:20:39 41° 290° (WNW) 00:27:42 435.910
ESTCUBE 1 18 Jan 00:15:49 00:17:48 13° 268° (W) 00:19:46 437.505/2401.250
BUGSAT 1 18 Jan 00:24:54 00:28:50 51° 100° (E) 00:32:46 437.445
Oscar 19 18 Jan 00:31:40 00:34:40 15° 93° (E) 00:37:37 437.125/150
QB50P1 18 Jan 00:33:01 00:36:47 33° 288° (WNW) 00:40:34 145.935-145.965
POLYITAN 1 18 Jan 00:36:18 00:39:59 30° 289° (WNW) 00:43:41 437.675
QB50P2 18 Jan 00:37:32 00:41:07 27° 289° (WNW) 00:44:41 145.880/145.840
VELOX 1 18 Jan 00:38:18 00:41:27 19° 265° (W) 00:44:37 145.980
Cosmos 2491 18 Jan 00:40:15 00:43:36 13° 77° (ENE) 00:46:56 435.465 / 435.565
AO-85 18 Jan 00:45:26 00:48:27 21° 248° (WSW) 00:51:29 145.980
50 SAT 18 Jan 00:45:45 00:47:40 14° 266° (W) 00:49:37 437.505
BEESAT 18 Jan 00:50:54 00:52:02 11° 63° (ENE) 00:53:12 436.000
SWISSCUBE 18 Jan 00:51:16 00:53:17 13° 64° (ENE) 00:55:20 437.505
POPSAT HIP 1 18 Jan 01:00:31 01:03:15 17° 292° (WNW) 01:06:00 437.405
Cosmos 2504 18 Jan 01:01:45 01:05:47 15° 67° (ENE) 01:09:45 435.465 / 435.565
AIST 1 18 Jan 01:14:38 01:18:45 46° 80° (E) 01:22:50
DUCHIFAT 1 18 Jan 01:15:35 01:17:39 13° 293° (WNW) 01:19:43 145.980
PCSat 18 Jan 01:17:31 01:22:55 86° 296° (WNW) 01:28:22 145.827
NANOSAT C BR1 18 Jan 01:20:25 01:21:35 11° 294° (WNW) 01:22:46 145.865
DX 1 18 Jan 01:21:12 01:23:13 13° 267° (W) 01:25:14 434.975-435.025
UKube-1 18 Jan 01:25:23 01:27:58 16° 266° (W) 01:30:36 .
TISAT 1 18 Jan 01:29:50 01:33:50 45° 260° (W) 01:37:52 437.305
YUBILEINY 18 Jan 01:47:15 01:56:06 75° 83° (E) 02:04:50 435.215
ITUPSAT 1 18 Jan 01:48:07 01:52:38 45° 72° (ENE) 01:57:10 437.325
Gurwin Techsat 1B 18 Jan 02:00:27 02:05:45 65° 102° (ESE) 02:11:00 435.225
BEESAT 3 18 Jan 02:02:30 02:06:28 57° 59° (ENE) 02:10:22 437.485
BUGSAT 1 18 Jan 02:02:58 02:03:43 10° 294° (WNW) 02:04:28 437.445
Oscar 19 18 Jan 02:09:13 02:14:14 52° 287° (WNW) 02:19:13 437.125/150
RS-15 18 Jan 02:09:22 02:19:45 33° 318° (NW) 02:30:31 29.354- 29.394
AO-7 18 Jan 02:12:40 02:16:36 14° 91° (E) 02:20:31 29.400- 29.500
PHONESAT 2.4 18 Jan 02:17:03 02:19:08 29° 150° (SSE) 02:21:13 2401.200-2431.200
BEESAT 18 Jan 02:24:27 02:29:10 70° 258° (WSW) 02:33:56 436.000
M-CUBED/EXP-1 PRIME 18 Jan 02:25:21 02:28:48 22° 66° (ENE) 02:32:08 437.505
SWISSCUBE 18 Jan 02:25:51 02:30:31 60° 259° (W) 02:35:14 437.505
Cosmos 2491 18 Jan 02:30:17 02:38:59 83° 94° (E) 02:47:43 435.465 / 435.565
BEESAT 2 18 Jan 02:41:03 02:45:05 64° 60° (ENE) 02:49:04 435.950
MOZHAYETS 4 18 Jan 02:44:55 02:49:19 51° 74° (ENE) 02:53:46
ITAMSAT 1 18 Jan 02:46:07 02:50:46 32° 98° (E) 02:55:24 435.822/435.867
Cosmos 2504 18 Jan 02:52:39 03:00:02 77° 266° (W) 03:07:10 435.465 / 435.565
AIST 1 18 Jan 02:54:45 02:55:50 11° 275° (W) 02:56:54
AUBIESAT-1 18 Jan 03:03:36 03:07:50 48° 70° (ENE) 03:11:51 437.475
PCSat 18 Jan 03:05:01 03:07:05 12° 314° (NW) 03:09:11 145.827
STARS 18 Jan 03:11:50 03:13:58 13° 66° (ENE) 03:16:06 437.465
